Simultaneous Nadir Overpasses (SNOs) Predictions

Prediction of SNOs between GOES-16 and METOP-C Satellite Orbit:

Table of predicted SNOs for the next 14.0 days since TLE Epoch: 11/30/2024
Index Date Time (GOES-16) GOES-16 Lat,Lon METOP-C Lat,Lon Distance(km) Time Diff (sec)
1 11/30/2024 02:49:49 0.03, -75.19 0.00, -79.66 497.26 0
2 12/01/2024 02:27:35 0.03, -75.19 0.19, -74.46 82.86 80
3 12/02/2024 14:49:08 -0.02, -75.21 0.80, -79.03 434.37 80
4 12/03/2024 14:25:48 -0.02, -75.21 -0.28, -74.03 134.77 80
5 12/05/2024 02:47:29 0.01, -75.19 -0.76, -78.62 391.21 80
6 12/06/2024 02:24:10 0.01, -75.19 0.38, -73.64 178.33 80
7 12/07/2024 14:45:43 -0.01, -75.23 0.64, -78.20 337.91 80
8 12/08/2024 14:22:23 -0.01, -75.24 -0.46, -73.20 232.07 80
9 12/10/2024 02:44:03 0.00, -75.23 -0.55, -77.80 292.55 80
10 12/11/2024 02:20:44 0.00, -75.24 0.55, -72.80 277.80 80
11 12/12/2024 14:42:16 0.00, -75.28 0.45, -77.36 237.39 80
12 12/13/2024 14:18:57 0.01, -75.29 -0.66, -72.37 333.16 80
